Weather History for KBXK - October, 2012

Change the Weather History Date:

Friday, October 12, 2012

  Actual Average (KGYR) Record (KGYR)
Temperature  
Mean Temperature 65 °F -  
Max Temperature 75 °F 89 °F 102 °F (1996)
Min Temperature 55 °F 60 °F 44 °F (2008)
Growing Degree Days 15 (Base 50)    
Moisture  
Dew Point 43 °F    
Average Humidity 47    
Maximum Humidity 72    
Minimum Humidity 25    
Precipitation  
Precipitation 0.00 in - - ()
Sea Level Pressure  
Sea Level Pressure 30.00 in    
Wind  
Wind Speed 5 mph (SSW)    
Max Wind Speed 13 mph    
Max Gust Speed 21 mph    
Visibility 10 miles    
Events      
Averages and records for this station are not official NWS values.
T = Trace of Precipitation, MM = Missing Value Source: NWS Daily Summary

Daily Weather History Graph

Daily Weather History Graph

Search for Another Location

Airport or City:

Trip Planner

Search our weather history database for the weather conditions in past years. The results will help you decide how hot, cold, wet, or windy it might be!

Date:

Astronomy

Oct. 12, 2012 Rise Set
Actual Time 6:33 AM MST 6:00 PM MST
Civil Twilight 6:08 AM MST 6:25 PM MST
Nautical Twilight 5:39 AM MST 6:53 PM MST
Astronomical Twilight 5:10 AM MST 7:22 PM MST
Moon 3:28 AM MST (10/12) 4:05 PM MST (10/12)
Length of Visible Light 12h 16m
Length of Day
11h 26m
Waning Crescent, 10% of the Moon is Illuminated
Oct 12
Waning Crescent
Oct 15
New
Oct 21
First Quarter
Oct 29
Full
Nov 6
Last Quarter

Hourly Weather History & Observations

Time (MST) Temp. Dew Point Humidity Pressure Visibility Wind Dir Wind Speed Gust Speed Precip Events Conditions
12:15 AM 62.6 °F 44.6 °F 52% 29.88 in 10.0 mi SSE 6.9 mph - N/A   Partly Cloudy
12:35 AM 62.6 °F 44.6 °F 52% 29.88 in 10.0 mi Calm Calm - N/A   Mostly Cloudy
1:35 AM 64.4 °F 44.6 °F 49% 29.90 in 10.0 mi Calm Calm - N/A   Overcast
1:55 AM 64.4 °F 42.8 °F 45% 29.90 in 10.0 mi NNW 4.6 mph - N/A   Overcast
2:15 AM 64.4 °F 42.8 °F 45% 29.90 in 10.0 mi Calm Calm - N/A   Mostly Cloudy
2:35 AM 64.4 °F 44.6 °F 49% 29.90 in 10.0 mi NE 3.5 mph - N/A   Mostly Cloudy
2:55 AM 64.4 °F 44.6 °F 49% 29.90 in 10.0 mi East 4.6 mph - N/A   Mostly Cloudy
3:15 AM 64.4 °F 46.4 °F 52% 29.91 in 10.0 mi SSE 6.9 mph - N/A   Mostly Cloudy
3:35 AM 62.6 °F 46.4 °F 55% 29.91 in 10.0 mi ESE 8.1 mph - N/A   Mostly Cloudy
3:55 AM 62.6 °F 46.4 °F 55% 29.92 in 10.0 mi South 8.1 mph - N/A   Mostly Cloudy
4:15 AM 60.8 °F 44.6 °F 55% 29.93 in 10.0 mi South 6.9 mph - N/A   Scattered Clouds
4:35 AM 59.0 °F 42.8 °F 55% 29.95 in 10.0 mi WSW 5.8 mph - N/A   Partly Cloudy
4:55 AM 59.0 °F 41.0 °F 51% 29.96 in 10.0 mi West 9.2 mph - N/A   Scattered Clouds
5:15 AM 60.8 °F 44.6 °F 55% 29.96 in 10.0 mi West 12.7 mph - N/A   Mostly Cloudy
5:35 AM 59.0 °F 44.6 °F 59% 29.97 in 10.0 mi WNW 11.5 mph - N/A   Mostly Cloudy
5:55 AM 59.0 °F 44.6 °F 59% 29.98 in 10.0 mi WNW 4.6 mph - N/A   Partly Cloudy
6:15 AM 57.2 °F 46.4 °F 67% 29.98 in 10.0 mi NNW 3.5 mph - N/A   Clear
6:35 AM 55.4 °F 46.4 °F 72% 30.00 in 10.0 mi South 6.9 mph - N/A   Clear
6:55 AM 55.4 °F 46.4 °F 72% 30.01 in 10.0 mi South 3.5 mph - N/A   Clear
7:15 AM 57.2 °F 46.4 °F 67% 30.02 in 10.0 mi Calm Calm - N/A   Clear
7:55 AM 57.2 °F 46.4 °F 67% 30.04 in 10.0 mi Calm Calm - N/A   Clear
8:15 AM 59.0 °F 46.4 °F 63% 30.05 in 10.0 mi Calm Calm - N/A   Clear
8:35 AM 59.0 °F 46.4 °F 63% 30.06 in 10.0 mi Calm Calm - N/A   Clear
8:55 AM 60.8 °F 46.4 °F 59% 30.08 in 10.0 mi SE 3.5 mph - N/A   Clear
9:15 AM 62.6 °F 46.4 °F 55% 30.08 in 10.0 mi SE 6.9 mph - N/A   Clear
9:35 AM 62.6 °F 46.4 °F 55% 30.08 in 10.0 mi SSE 3.5 mph - N/A   Clear
9:55 AM 64.4 °F 46.4 °F 52% 30.09 in 10.0 mi South 4.6 mph - N/A   Clear
10:15 AM 64.4 °F 46.4 °F 52% 30.09 in 10.0 mi Calm Calm - N/A   Clear
10:55 AM 66.2 °F 44.6 °F 46% 30.09 in 10.0 mi SW 4.6 mph - N/A   Clear
11:35 AM 68.0 °F 41.0 °F 37% 30.09 in 10.0 mi South 4.6 mph - N/A   Clear
1:15 PM 73.4 °F 37.4 °F 27% 30.07 in 10.0 mi SW 8.1 mph - N/A   Clear
1:55 PM 73.4 °F 37.4 °F 27% 30.05 in 10.0 mi North 3.5 mph - N/A   Clear
2:15 PM 73.4 °F 37.4 °F 27% 30.04 in 10.0 mi SW 9.2 mph 20.7 mph N/A   Clear
2:35 PM 73.4 °F 37.4 °F 27% 30.03 in 10.0 mi SSW 9.2 mph - N/A   Clear
2:55 PM 75.2 °F 37.4 °F 25% 30.03 in 10.0 mi SSW 9.2 mph 16.1 mph N/A   Clear
3:15 PM 75.2 °F 37.4 °F 25% 30.04 in 10.0 mi WSW 8.1 mph - N/A   Clear
3:35 PM 73.4 °F 37.4 °F 27% 30.04 in 10.0 mi SSW 8.1 mph - N/A   Clear
4:15 PM 73.4 °F 37.4 °F 27% 30.03 in 10.0 mi South 5.8 mph - N/A   Scattered Clouds
4:55 PM 71.6 °F 39.2 °F 31% 30.04 in 10.0 mi WSW 5.8 mph - N/A   Clear
5:15 PM 71.6 °F 37.4 °F 29% 30.04 in 10.0 mi SW 4.6 mph - N/A   Clear
5:35 PM 71.6 °F 39.2 °F 31% 30.04 in 10.0 mi SSE 4.6 mph - N/A   Scattered Clouds
6:15 PM 68.0 °F 41.0 °F 37% 30.04 in 10.0 mi South 5.8 mph - N/A   Scattered Clouds
6:35 PM 68.0 °F 41.0 °F 37% 30.04 in 10.0 mi SSW 4.6 mph - N/A   Partly Cloudy
10:15 PM 64.4 °F 39.2 °F 40% 30.08 in 10.0 mi Calm Calm - N/A   Clear
11:35 PM 59.0 °F 37.4 °F 45% 30.08 in 10.0 mi North 5.8 mph - N/A   Clear